Previsão horária em Cesarzowice

Hoje, 31 Julho, Sábado

Tempo Temperatura Precipitação Vento Pressão Humidade
00:00 +21°C° 0 mm 1 m/s 744 mmHg 64%
01:00 +20°C° 0 mm 2 m/s 744 mmHg 65%
02:00 +20°C° 0 mm 2 m/s 744 mmHg 66%
03:00 +20°C° 0 mm 2 m/s 744 mmHg 67%
04:00 +20°C° 0 mm 2 m/s 744 mmHg 68%
05:00 +21°C° 0 mm 3 m/s 744 mmHg 67%
06:00 +22°C° 0 mm 3 m/s 744 mmHg 66%
07:00 +23°C° 0 mm 4 m/s 745 mmHg 66%
08:00 +25°C° 0 mm 4 m/s 745 mmHg 62%
09:00 +26°C° 0 mm 5 m/s 745 mmHg 58%
10:00 +27°C° 0 mm 5 m/s 745 mmHg 54%
11:00 +27°C° 0.1 mm 5 m/s 745 mmHg 51%
12:00 +27°C° 0.1 mm 5 m/s 745 mmHg 49%
13:00 +27°C° 0.1 mm 5 m/s 745 mmHg 46%
14:00 +28°C° 0 mm 5 m/s 745 mmHg 42%
15:00 +28°C° 0 mm 5 m/s 745 mmHg 38%
16:00 +28°C° 0 mm 5 m/s 745 mmHg 34%
17:00 +27°C° 0 mm 5 m/s 745 mmHg 39%
18:00 +25°C° 0 mm 4 m/s 745 mmHg 45%
19:00 +24°C° 0 mm 3 m/s 745 mmHg 50%
20:00 +21°C° 0 mm 3 m/s 746 mmHg 53%
21:00 +20°C° 0 mm 3 m/s 746 mmHg 56%
22:00 +19°C° 0 mm 2 m/s 746 mmHg 59%
23:00 +18°C° 0 mm 2 m/s 746 mmHg 62%

Amanhã, 1 Agosto, Domingo

Tempo Temperatura Precipitação Vento Pressão Humidade
00:00 +17°C° 0 mm 2 m/s 746 mmHg 65%
01:00 +18°C° 0 mm 1 m/s 746 mmHg 68%
02:00 +18°C° 0 mm 1 m/s 746 mmHg 69%
03:00 +16°C° 0 mm 1 m/s 746 mmHg 70%
04:00 +16°C° 0 mm 1 m/s 746 mmHg 71%
05:00 +18°C° 0 mm 1 m/s 746 mmHg 67%
06:00 +19°C° 0 mm 1 m/s 746 mmHg 64%
07:00 +21°C° 0 mm 1 m/s 746 mmHg 60%
08:00 +19°C° 2.1 mm 1 m/s 746 mmHg 70%
09:00 +18°C° 2.1 mm 1 m/s 746 mmHg 81%
10:00 +16°C° 2.1 mm 2 m/s 746 mmHg 91%
11:00 +16°C° 1.7 mm 2 m/s 746 mmHg 92%
12:00 +16°C° 1.7 mm 1 m/s 746 mmHg 92%
13:00 +16°C° 1.7 mm 1 m/s 746 mmHg 93%
14:00 +16°C° 0.3 mm 1 m/s 746 mmHg 92%
15:00 +16°C° 0.3 mm 1 m/s 746 mmHg 91%
16:00 +18°C° 0.3 mm 1 m/s 746 mmHg 90%
17:00 +18°C° 0 mm 1 m/s 746 mmHg 89%
18:00 +18°C° 0 mm 1 m/s 745 mmHg 89%
19:00 +18°C° 0 mm 1 m/s 745 mmHg 88%
20:00 +16°C° 0 mm 1 m/s 745 mmHg 89%
21:00 +15°C° 0 mm 1 m/s 745 mmHg 90%
22:00 +15°C° 0 mm 1 m/s 745 mmHg 91%
23:00 +15°C° 0.1 mm 2 m/s 745 mmHg 91%

Depois de amanhã, 2 Agosto, Segunda-feira

Tempo Temperatura Precipitação Vento Pressão Humidade
00:00 +15°C° 0.1 mm 2 m/s 745 mmHg 90%
01:00 +15°C° 0.1 mm 2 m/s 746 mmHg 90%
02:00 +16°C° 0.1 mm 2 m/s 746 mmHg 89%
03:00 +16°C° 0.1 mm 2 m/s 746 mmHg 89%
04:00 +16°C° 0.1 mm 2 m/s 746 mmHg 88%
05:00 +16°C° 0.2 mm 2 m/s 746 mmHg 86%
06:00 +17°C° 0.2 mm 3 m/s 746 mmHg 85%
07:00 +18°C° 0.2 mm 3 m/s 746 mmHg 83%
08:00 +19°C° 0.5 mm 3 m/s 747 mmHg 77%
09:00 +20°C° 0.5 mm 4 m/s 747 mmHg 71%
10:00 +21°C° 0.5 mm 4 m/s 747 mmHg 65%
11:00 +22°C° 0.1 mm 4 m/s 747 mmHg 59%
12:00 +23°C° 0.1 mm 4 m/s 747 mmHg 52%
13:00 +25°C° 0.1 mm 5 m/s 747 mmHg 46%
14:00 +25°C° 0.1 mm 5 m/s 747 mmHg 50%
15:00 +23°C° 0.1 mm 5 m/s 747 mmHg 54%
16:00 +22°C° 0.1 mm 5 m/s 747 mmHg 59%
17:00 +21°C° 0.3 mm 4 m/s 748 mmHg 65%
18:00 +20°C° 0.3 mm 4 m/s 748 mmHg 71%
19:00 +19°C° 0.3 mm 3 m/s 748 mmHg 77%
20:00 +18°C° 0 mm 3 m/s 748 mmHg 80%
21:00 +17°C° 0 mm 3 m/s 749 mmHg 84%
22:00 +16°C° 0 mm 2 m/s 749 mmHg 87%
23:00 +15°C° 0 mm 2 m/s 750 mmHg 88%

3 Agosto, Terça-feira

Tempo Temperatura Precipitação Vento Pressão Humidade
00:00 +15°C° 0 mm 2 m/s 750 mmHg 89%
01:00 +15°C° 0 mm 2 m/s 750 mmHg 89%
02:00 +14°C° 0 mm 2 m/s 750 mmHg 89%
03:00 +14°C° 0 mm 2 m/s 750 mmHg 89%
04:00 +14°C° 0 mm 2 m/s 750 mmHg 89%
05:00 +15°C° 0 mm 2 m/s 750 mmHg 84%
06:00 +16°C° 0 mm 1 m/s 751 mmHg 78%
07:00 +19°C° 0 mm 1 m/s 751 mmHg 72%
08:00 +20°C° 0 mm 1 m/s 751 mmHg 64%
09:00 +22°C° 0 mm 1 m/s 751 mmHg 56%
10:00 +24°C° 0 mm 1 m/s 751 mmHg 48%
11:00 +24°C° 0 mm 1 m/s 750 mmHg 46%
12:00 +25°C° 0 mm 2 m/s 750 mmHg 44%
13:00 +26°C° 0 mm 2 m/s 750 mmHg 42%
14:00 +26°C° 0 mm 2 m/s 749 mmHg 44%
15:00 +25°C° 0 mm 2 m/s 749 mmHg 47%
16:00 +25°C° 0 mm 2 m/s 749 mmHg 49%
17:00 +24°C° 0 mm 2 m/s 749 mmHg 52%
18:00 +24°C° 0 mm 2 m/s 748 mmHg 55%
19:00 +23°C° 0 mm 2 m/s 748 mmHg 59%
20:00 +21°C° 0 mm 2 m/s 748 mmHg 60%
21:00 +20°C° 0 mm 2 m/s 748 mmHg 62%
22:00 +19°C° 0 mm 3 m/s 748 mmHg 63%
23:00 +18°C° 0 mm 2 m/s 748 mmHg 65%

4 Agosto, Quarta-feira

Tempo Temperatura Precipitação Vento Pressão Humidade
00:00 +18°C° 0 mm 2 m/s 748 mmHg 67%
01:00 +17°C° 0 mm 2 m/s 747 mmHg 69%
02:00 +17°C° 0.2 mm 2 m/s 747 mmHg 73%
03:00 +17°C° 0.2 mm 2 m/s 747 mmHg 78%
04:00 +16°C° 0.2 mm 1 m/s 747 mmHg 82%
05:00 +17°C° 0.5 mm 2 m/s 747 mmHg 83%
06:00 +17°C° 0.5 mm 3 m/s 747 mmHg 84%
07:00 +18°C° 0.5 mm 3 m/s 747 mmHg 84%
08:00 +17°C° 0.9 mm 4 m/s 748 mmHg 87%
09:00 +17°C° 0.9 mm 4 m/s 748 mmHg 90%
10:00 +17°C° 0.9 mm 4 m/s 748 mmHg 92%
11:00 +17°C° 0.8 mm 3 m/s 748 mmHg 92%
12:00 +17°C° 0.8 mm 3 m/s 748 mmHg 92%
13:00 +17°C° 0.8 mm 3 m/s 748 mmHg 92%
14:00 +18°C° 0.1 mm 2 m/s 748 mmHg 87%
15:00 +19°C° 0.1 mm 2 m/s 747 mmHg 81%
16:00 +21°C° 0.1 mm 1 m/s 747 mmHg 75%
17:00 +20°C° 0 mm 1 m/s 747 mmHg 76%
18:00 +20°C° 0 mm 1 m/s 747 mmHg 78%
19:00 +19°C° 0 mm 1 m/s 747 mmHg 79%
20:00 +18°C° 0 mm 1 m/s 747 mmHg 82%
21:00 +15°C° 0 mm 0 m/s 747 mmHg 85%
22:00 +15°C° 0 mm 0 m/s 747 mmHg 88%
23:00 +15°C° 0 mm 1 m/s 747 mmHg 88%

5 Agosto, Quinta-feira

Tempo Temperatura Precipitação Vento Pressão Humidade
00:00 +15°C° 0 mm 1 m/s 747 mmHg 89%
01:00 +15°C° 0 mm 2 m/s 746 mmHg 89%
02:00 +15°C° 0 mm 2 m/s 746 mmHg 89%
03:00 +15°C° 0 mm 2 m/s 746 mmHg 89%
04:00 +14°C° 0 mm 2 m/s 746 mmHg 89%
05:00 +14°C° 0 mm 3 m/s 746 mmHg 88%
06:00 +16°C° 0 mm 3 m/s 746 mmHg 86%
07:00 +17°C° 0 mm 4 m/s 746 mmHg 85%
08:00 +18°C° 0.2 mm 4 m/s 746 mmHg 80%
09:00 +19°C° 0.2 mm 4 m/s 746 mmHg 76%
10:00 +20°C° 0.2 mm 5 m/s 746 mmHg 71%
11:00 +20°C° 0.2 mm 4 m/s 746 mmHg 69%
12:00 +21°C° 0.2 mm 4 m/s 746 mmHg 66%
13:00 +21°C° 0.2 mm 4 m/s 746 mmHg 64%
14:00 +21°C° 0.2 mm 4 m/s 745 mmHg 63%
15:00 +21°C° 0.2 mm 4 m/s 745 mmHg 62%
16:00 +22°C° 0.2 mm 3 m/s 745 mmHg 62%
17:00 +21°C° 0.1 mm 3 m/s 745 mmHg 67%
18:00 +19°C° 0.1 mm 2 m/s 745 mmHg 73%
19:00 +18°C° 0.1 mm 2 m/s 745 mmHg 78%
20:00 +17°C° 0 mm 2 m/s 745 mmHg 82%
21:00 +17°C° 0 mm 2 m/s 745 mmHg 86%
22:00 +16°C° 0 mm 1 m/s 745 mmHg 90%
23:00 +15°C° 0 mm 1 m/s 745 mmHg 90%
Mostrar mais

Necessitamos do seu Consentimento

A Meteoprog e os seus Fornecedores de Serviços podem armazenar e aceder a dados pessoais como cookies, identificadores do dispositivo ou outras tecnologias semelhantes existentes no seu dispositivo e processar estes dados para personalizar conteúdos e anúncios, assim como funcionalidades nas redes sociais e análise de tráfego.

  • Armazenar e/ou aceder a informações no seu dispositivo

    Os cookies, identificadores do dispositivo ou outras informações podem ser armazenados ou acedidos no seu dispositivo, para os fins acima indicados.

  • Anúncios e conteúdos personalizados, medição de anúncios e conteúdos, dados sobre o público-alvo e desenvolvimento de produtos

    Os anúncios e os conteúdos podem ser personalizados com base num perfil. Podem ser adicionados dados adicionais para uma maior personalização dos anúncios e dos conteúdos. A eficácia dos anúncios e dos conteúdos pode ser medida. Podem ser obtidas informações sobre o público que visualizou os anúncios e os conteúdos. Estes dados podem ser usados para desenvolver ou melhorar sistemas, softwares ou a experiência do utilizador.

Ao clicar em "Eu concordo”, permitirá o uso de cookies, identificadores do dispositivo e web beacons mencionados ou outras tecnologias semelhantes. As configurações do navegador do seu dispositivo podem ser alteradas.

Para certos fins, podem ser invocados interesses legítimos ao invés de consentimento. Pode ler mais informação sobre este assunto na nossa Política de Privacidade e Cookies.